| time (UTC) | temp C | wind direction | speed KPH | gust KPH | rain 1hr cm | rain 24hr cm | rain mn cm | humidity % | barometer mb |
| 20260505011516 | 23 | 180 | 4.8 | 11.3 | 0.00 | 0.79 | 0.79 | 52 | 1003.7 |
| 20260505010516 | 23 | 180 | 4.8 | 11.3 | 0.00 | 0.79 | 0.79 | 52 | 1003.5 |
| 20260505005517 | 23 | 158 | 4.8 | 12.9 | 0.00 | 0.79 | 0.79 | 51 | 1003.4 |
| 20260505004516 | 24 | 180 | 4.8 | 11.3 | 0.00 | 0.79 | 0.79 | 50 | 1003.2 |
| 20260505003516 | 24 | 180 | 4.8 | 9.7 | 0.00 | 0.79 | 0.79 | 50 | 1003.0 |
| 20260505002516 | 25 | 203 | 4.8 | 14.5 | 0.00 | 0.79 | 0.79 | 49 | 1003.0 |
| 20260505001516 | 25 | 248 | 4.8 | 11.3 | 0.00 | 0.79 | 0.79 | 49 | 1003.0 |
| 20260505000517 | 25 | 180 | 6.4 | 16.1 | 0.00 | 0.79 | 0.79 | 49 | 1002.9 |
| 20260504235536 | 25 | 203 | 4.8 | 12.9 | 0.00 | 0.79 | 0.79 | 48 | 1003.0 |
| 20260504234516 | 26 | 225 | 4.8 | 11.3 | 0.00 | 0.79 | 0.79 | 48 | 1002.9 |
| 20260504233516 | 26 | 203 | 9.7 | 22.5 | 0.00 | 0.79 | 0.79 | 46 | 1003.0 |
| 20260504232516 | 26 | 180 | 8.0 | 17.7 | 0.00 | 0.79 | 0.79 | 46 | 1003.2 |
| 20260504231518 | 26 | 180 | 6.4 | 16.1 | 0.00 | 0.79 | 0.79 | 47 | 1003.3 |
| 20260504230516 | 26 | 180 | 6.4 | 17.7 | 0.00 | 0.79 | 0.79 | 46 | 1003.4 |
| 20260504225516 | 26 | 180 | 6.4 | 12.9 | 0.00 | 0.79 | 0.79 | 47 | 1003.6 |
| 20260504224516 | 26 | 158 | 8.0 | 17.7 | 0.00 | 0.79 | 0.79 | 48 | 1003.7 |
| 20260504223516 | 26 | 180 | 9.7 | 19.3 | 0.00 | 0.79 | 0.79 | 49 | 1003.7 |
| 20260504222516 | 26 | 135 | 6.4 | 16.1 | 0.00 | 0.79 | 0.79 | 51 | 1003.8 |
| 20260504221516 | 26 | 225 | 4.8 | 16.1 | 0.00 | 0.79 | 0.79 | 54 | 1003.6 |
| 20260504220516 | 25 | 180 | 6.4 | 11.3 | 0.00 | 0.79 | 0.79 | 55 | 1003.7 |
| 20260504215516 | 25 | 180 | 6.4 | 9.7 | 0.00 | 0.79 | 0.79 | 54 | 1003.7 |
| 20260504214536 | 25 | 180 | 4.8 | 12.9 | 0.00 | 0.79 | 0.79 | 58 | 1003.7 |
| 20260504213516 | 24 | 225 | 4.8 | 14.5 | 0.00 | 0.79 | 0.79 | 63 | 1003.8 |
| 20260504212539 | 23 | 180 | 3.2 | 9.7 | 0.00 | 0.79 | 0.79 | 65 | 1003.8 |
| 20260504211516 | 23 | 180 | 3.2 | 9.7 | 0.00 | 0.79 | 0.79 | 67 | 1004.0 |
| 20260504210516 | 22 | 180 | 3.2 | 11.3 | 0.00 | 0.79 | 0.79 | 68 | 1004.2 |
| 20260504205516 | 22 | 225 | 4.8 | 11.3 | 0.00 | 0.79 | 0.79 | 67 | 1004.2 |
| 20260504204516 | 22 | 158 | 6.4 | 12.9 | 0.00 | 0.79 | 0.79 | 68 | 1004.4 |
| 20260504203516 | 21 | 113 | 4.8 | 16.1 | 0.03 | 0.79 | 0.79 | 72 | 1004.5 |
| 20260504202516 | 20 | 135 | 4.8 | 11.3 | 0.03 | 0.79 | 0.79 | 77 | 1004.4 |
| 20260504201516 | 19 | 158 | 6.4 | 12.9 | 0.08 | 0.79 | 0.79 | 80 | 1004.5 |
| 20260504200516 | 18 | 338 | 3.2 | 12.9 | 0.28 | 0.79 | 0.79 | 85 | 1004.8 |
| 20260504195516 | 18 | 270 | 3.2 | 8.0 | 0.66 | 0.79 | 0.79 | 85 | 1004.4 |
| 20260504194515 | 17 | 158 | 8.0 | 14.5 | 0.79 | 0.79 | 0.79 | 87 | 1004.6 |
| 20260504193516 | 17 | 180 | 4.8 | 12.9 | 0.76 | 0.76 | 0.76 | 87 | 1004.9 |
| 20260504192516 | 16 | 68 | 3.2 | 4.8 | 0.76 | 0.76 | 0.76 | 87 | 1004.8 |
| 20260504191516 | 17 | 68 | 3.2 | 6.4 | 0.71 | 0.71 | 0.71 | 86 | 1005.6 |
| 20260504190516 | 17 | 68 | 1.6 | 4.8 | 0.51 | 0.51 | 0.51 | 83 | 1006.6 |
| 20260504185636 | 19 | 0 | 3.2 | 6.4 | 0.13 | 0.13 | 0.13 | 76 | 1006.2 |
| 20260504184515 | 21 | 338 | 4.8 | 8.0 | 0.00 | 0.00 | 0.00 | 65 | 1006.2 |
| 20260504183515 | 22 | 113 | 1.6 | 4.8 | 0.00 | 0.00 | 0.00 | 59 | 1006.4 |
| 20260504182516 | 22 | 135 | 3.2 | 6.4 | 0.00 | 0.00 | 0.00 | 57 | 1006.5 |
| 20260504181515 | 22 | 135 | 3.2 | 12.9 | 0.00 | 0.00 | 0.00 | 58 | 1006.4 |
| 20260504180515 | 21 | 135 | 6.4 | 16.1 | 0.00 | 0.00 | 0.00 | 60 | 1005.9 |
| 20260504175518 | 21 | 158 | 3.2 | 14.5 | 0.00 | 0.00 | 0.00 | 62 | 1006.0 |
| 20260504174518 | 20 | 135 | 4.8 | 9.7 | 0.00 | 0.00 | 0.00 | 63 | 1006.2 |
| 20260504173517 | 20 | 158 | 4.8 | 11.3 | 0.00 | 0.00 | 0.00 | 63 | 1006.4 |
| 20260504172518 | 20 | 158 | 6.4 | 14.5 | 0.00 | 0.00 | 0.00 | 63 | 1006.3 |
| 20260504171518 | 19 | 135 | 6.4 | 14.5 | 0.00 | 0.00 | 0.00 | 64 | 1006.2 |
| 20260504170518 | 19 | 135 | 4.8 | 11.3 | 0.00 | 0.00 | 0.00 | 64 | 1006.9 |
| 20260504150517 | 20 | 180 | 4.8 | 8.0 | 0.00 | 0.00 | 0.00 | 60 | 1008.9 |
| 20260504140517 | 18 | 180 | 6.4 | 12.9 | 0.00 | 0.00 | 0.00 | 65 | 1008.5 |
| 20260504130517 | 17 | 135 | 4.8 | 9.7 | 0.00 | 0.00 | 0.00 | 73 | 1009.3 |
| 20260504110517 | 12 | 0.0 | 0.0 | 0.00 | 0.00 | 0.00 | 86 | 1009.5 | |
| 20260504100517 | 12 | 0.0 | 0.0 | 0.00 | 0.00 | 0.00 | 83 | 1009.1 | |
| 20260504081516 | 13 | 0.0 | 1.6 | 0.00 | 0.00 | 0.00 | 77 | 1009.2 | |
| 20260504080516 | 14 | 0.0 | 3.2 | 0.00 | 0.00 | 0.00 | 76 | 1009.2 | |
| 20260504050516 | 17 | 158 | 1.6 | 6.4 | 0.00 | 0.00 | 0.00 | 59 | 1009.0 |
| 20260504045517 | 17 | 180 | 3.2 | 8.0 | 0.00 | 0.00 | 0.00 | 59 | 1009.2 |
| 20260504044517 | 18 | 180 | 3.2 | 4.8 | 0.00 | 0.00 | 0.00 | 58 | 1009.5 |
| 20260504043517 | 18 | 203 | 3.2 | 8.0 | 0.00 | 0.00 | 0.00 | 57 | 1009.8 |
| 20260504042537 | 18 | 180 | 3.2 | 6.4 | 0.00 | 0.00 | 0.00 | 56 | 1010.1 |
| 20260504041537 | 18 | 203 | 3.2 | 9.7 | 0.00 | 0.00 | 0.00 | 55 | 1010.3 |
| 20260504040517 | 18 | 135 | 3.2 | 8.0 | 0.00 | 0.00 | 0.00 | 54 | 1010.3 |
| 20260504035517 | 18 | 113 | 4.8 | 9.7 | 0.00 | 0.00 | 0.00 | 54 | 1010.5 |
| 20260504034517 | 18 | 158 | 3.2 | 9.7 | 0.00 | 0.00 | 0.00 | 54 | 1010.5 |
| 20260504033517 | 18 | 158 | 3.2 | 6.4 | 0.00 | 0.00 | 0.00 | 54 | 1010.7 |
| 20260504032517 | 18 | 225 | 1.6 | 6.4 | 0.00 | 0.00 | 0.00 | 54 | 1010.6 |
| 20260504031517 | 18 | 135 | 3.2 | 8.0 | 0.00 | 0.00 | 0.00 | 53 | 1010.6 |
| 20260504030516 | 18 | 203 | 3.2 | 6.4 | 0.00 | 0.00 | 0.00 | 53 | 1010.4 |
| 20260504025537 | 18 | 158 | 1.6 | 4.8 | 0.00 | 0.00 | 0.00 | 54 | 1010.3 |
| 20260504024516 | 18 | 158 | 1.6 | 4.8 | 0.00 | 0.00 | 0.00 | 53 | 1010.3 |
| 20260504023516 | 18 | 180 | 3.2 | 8.0 | 0.00 | 0.00 | 0.00 | 53 | 1010.4 |
| 20260504022516 | 18 | 0.0 | 0.0 | 0.00 | 0.00 | 0.00 | 54 | 1010.3 | |
| 20260504021518 | 18 | 0.0 | 3.2 | 0.00 | 0.00 | 0.00 | 53 | 1010.2 | |
| 20260504020516 | 19 | 0.0 | 1.6 | 0.00 | 0.00 | 0.00 | 52 | 1010.1 | |
| 20260504015537 | 19 | 0.0 | 4.8 | 0.00 | 0.00 | 0.00 | 51 | 1010.1 | |
| 20260504014516 | 20 | 0.0 | 0.0 | 0.00 | 0.00 | 0.00 | 51 | 1009.9 | |
| 20260504013516 | 20 | 158 | 1.6 | 4.8 | 0.00 | 0.00 | 0.00 | 49 | 1009.9 |
| 20260504012517 | 21 | 180 | 1.6 | 4.8 | 0.00 | 0.00 | 0.00 | 47 | 1009.8 |